Time,TemperatureF,DewpointF,PressureIn,WindDirection,WindDirectionDegrees,WindSpeedMPH,WindSpeedGustMPH,Humidity,HourlyPrecipIn,Conditions,Clouds,dailyrainin,SoftwareType,DateUTC
2013-07-21 00:00:00,75.5,73.0,30.04,South,178,0.0,2.0,90,0.00,,,0.00,weatherlink.com 1.10,2013-07-21 04:00:00,
2013-07-21 00:15:00,75.5,73.0,30.05,ESE,117,0.0,4.0,90,0.00,,,0.00,weatherlink.com 1.10,2013-07-21 04:15:00,
2013-07-21 00:30:00,75.2,73.0,30.05,ENE,65,0.0,1.0,91,0.00,,,0.00,weatherlink.com 1.10,2013-07-21 04:30:00,
2013-07-21 00:46:00,74.6,72.0,30.04,ENE,65,0.0,1.0,92,0.00,,,0.00,weatherlink.com 1.10,2013-07-21 04:46:00,
2013-07-21 01:00:00,74.2,72.0,30.04,ENE,67,0.0,1.0,93,0.00,,,0.00,weatherlink.com 1.10,2013-07-21 05:00:00,
2013-07-21 01:15:00,73.9,72.0,30.04,East,86,0.0,1.0,93,0.00,,,0.00,weatherlink.com 1.10,2013-07-21 05:15:00,
2013-07-21 01:30:00,73.9,72.0,30.04,SE,146,0.0,1.0,93,0.00,,,0.00,weatherlink.com 1.10,2013-07-21 05:30:00,
2013-07-21 01:45:00,73.7,72.0,30.04,ESE,113,0.0,2.0,94,0.00,,,0.00,weatherlink.com 1.10,2013-07-21 05:45:00,
2013-07-21 02:00:00,73.4,72.0,30.03,SW,217,0.0,2.0,94,0.00,,,0.00,weatherlink.com 1.10,2013-07-21 06:00:00,
2013-07-21 02:15:00,73.2,71.0,30.03,SW,217,0.0,1.0,94,0.00,,,0.00,weatherlink.com 1.10,2013-07-21 06:15:00,
2013-07-21 02:30:00,73.5,72.0,30.03,East,82,0.0,1.0,94,0.00,,,0.00,weatherlink.com 1.10,2013-07-21 06:30:00,
2013-07-21 02:45:00,73.5,72.0,30.02,East,87,0.0,2.0,94,0.00,,,0.00,weatherlink.com 1.10,2013-07-21 06:45:00,
2013-07-21 03:01:00,73.6,72.0,30.02,ENE,73,0.0,2.0,94,0.00,,,0.00,weatherlink.com 1.10,2013-07-21 07:01:00,
2013-07-21 03:15:00,73.4,72.0,30.01,ENE,73,0.0,0.0,94,0.00,,,0.00,weatherlink.com 1.10,2013-07-21 07:15:00,
2013-07-21 03:30:00,73.4,72.0,30.01,ENE,73,0.0,2.0,94,0.00,,,0.00,weatherlink.com 1.10,2013-07-21 07:30:00,
2013-07-21 03:45:00,73.4,72.0,30.01,ENE,73,0.0,1.0,94,0.00,,,0.00,weatherlink.com 1.10,2013-07-21 07:45:00,
2013-07-21 04:01:00,73.3,72.0,30.00,ENE,73,0.0,0.0,94,0.00,,,0.00,weatherlink.com 1.10,2013-07-21 08:01:00,
2013-07-21 04:15:00,73.1,72.0,30.00,ENE,73,0.0,1.0,95,0.00,,,0.00,weatherlink.com 1.10,2013-07-21 08:15:00,
2013-07-21 04:30:00,72.8,71.0,30.00,ENE,73,0.0,0.0,95,0.00,,,0.00,weatherlink.com 1.10,2013-07-21 08:30:00,
2013-07-21 04:45:00,72.5,71.0,30.00,ENE,73,0.0,0.0,96,0.00,,,0.00,weatherlink.com 1.10,2013-07-21 08:45:00,
2013-07-21 05:00:00,72.2,71.0,30.00,ENE,73,0.0,0.0,96,0.00,,,0.00,weatherlink.com 1.10,2013-07-21 09:00:00,
2013-07-21 05:15:00,71.9,71.0,30.00,ENE,73,0.0,0.0,97,0.00,,,0.00,weatherlink.com 1.10,2013-07-21 09:15:00,
2013-07-21 05:30:00,71.7,71.0,30.00,ENE,73,0.0,0.0,97,0.00,,,0.00,weatherlink.com 1.10,2013-07-21 09:30:00,
2013-07-21 05:45:00,71.5,71.0,30.00,ENE,73,0.0,0.0,97,0.00,,,0.00,weatherlink.com 1.10,2013-07-21 09:45:00,
2013-07-21 06:00:00,71.3,71.0,30.00,ENE,73,0.0,1.0,98,0.00,,,0.00,weatherlink.com 1.10,2013-07-21 10:00:00,
2013-07-21 06:30:00,71.3,71.0,30.01,ENE,73,0.0,0.0,98,0.00,,,0.00,weatherlink.com 1.10,2013-07-21 10:30:00,
2013-07-21 06:45:00,71.4,71.0,30.02,ENE,73,0.0,1.0,98,0.00,,,0.00,weatherlink.com 1.10,2013-07-21 10:45:00,
2013-07-21 07:00:00,71.6,71.0,30.02,ENE,73,0.0,0.0,98,0.00,,,0.00,weatherlink.com 1.10,2013-07-21 11:00:00,
2013-07-21 07:15:00,71.9,71.0,30.02,ENE,73,0.0,1.0,98,0.00,,,0.00,weatherlink.com 1.10,2013-07-21 11:15:00,
2013-07-21 07:31:00,72.5,72.0,30.02,ENE,73,0.0,1.0,98,0.00,,,0.00,weatherlink.com 1.10,2013-07-21 11:31:00,
2013-07-21 07:46:00,73.1,73.0,30.03,ENE,73,0.0,1.0,98,0.00,,,0.00,weatherlink.com 1.10,2013-07-21 11:46:00,
2013-07-21 08:01:00,73.8,73.0,30.03,ENE,73,2.0,2.0,97,0.00,,,0.00,weatherlink.com 1.10,2013-07-21 12:01:00,
2013-07-21 08:16:00,74.4,73.0,30.04,NW,306,0.0,2.0,96,0.00,,,0.00,weatherlink.com 1.10,2013-07-21 12:16:00,
2013-07-21 08:31:00,74.7,73.0,30.04,NW,306,0.0,3.0,95,0.00,,,0.00,weatherlink.com 1.10,2013-07-21 12:31:00,
2013-07-21 08:46:00,75.2,74.0,30.03,SSE,150,0.0,2.0,95,0.00,,,0.00,weatherlink.com 1.10,2013-07-21 12:46:00,
2013-07-21 09:01:00,75.8,74.0,30.04,East,81,1.0,2.0,94,0.00,,,0.00,weatherlink.com 1.10,2013-07-21 13:01:00,
2013-07-21 09:16:00,76.6,74.0,30.04,NW,308,0.0,3.0,92,0.00,,,0.00,weatherlink.com 1.10,2013-07-21 13:16:00,
2013-07-21 09:31:00,77.5,75.0,30.05,NE,49,1.0,3.0,91,0.00,,,0.00,weatherlink.com 1.10,2013-07-21 13:31:00,
2013-07-21 09:46:00,78.3,75.0,30.05,ENE,67,2.0,4.0,88,0.00,,,0.00,weatherlink.com 1.10,2013-07-21 13:46:00,
2013-07-21 10:01:00,79.5,75.0,30.05,WNW,300,1.0,3.0,87,0.00,,,0.00,weatherlink.com 1.10,2013-07-21 14:01:00,
2013-07-21 10:16:00,80.0,75.0,30.05,ENE,74,1.0,3.0,84,0.00,,,0.00,weatherlink.com 1.10,2013-07-21 14:16:00,
2013-07-21 10:31:00,80.5,75.0,30.05,NE,42,0.0,6.0,83,0.00,,,0.00,weatherlink.com 1.10,2013-07-21 14:31:00,
2013-07-21 10:46:00,81.2,76.0,30.05,WNW,296,1.0,3.0,84,0.00,,,0.00,weatherlink.com 1.10,2013-07-21 14:46:00,
2013-07-21 11:01:00,81.4,76.0,30.05,NW,306,2.0,4.0,84,0.00,,,0.00,weatherlink.com 1.10,2013-07-21 15:01:00,
2013-07-21 11:16:00,81.3,76.0,30.05,ESE,115,0.0,4.0,84,0.00,,,0.00,weatherlink.com 1.10,2013-07-21 15:16:00,
2013-07-21 11:31:00,82.0,76.0,30.05,East,84,1.0,4.0,83,0.00,,,0.00,weatherlink.com 1.10,2013-07-21 15:31:00,
2013-07-21 11:46:00,81.2,76.0,30.05,WNW,298,1.0,4.0,85,0.00,,,0.00,weatherlink.com 1.10,2013-07-21 15:46:00,
2013-07-21 12:01:00,81.9,76.0,30.05,NW,315,1.0,5.0,83,0.00,,,0.00,weatherlink.com 1.10,2013-07-21 16:01:00,
2013-07-21 12:16:00,79.5,76.0,30.05,WNW,294,1.0,1.0,88,0.00,,,0.00,weatherlink.com 1.10,2013-07-21 16:16:00,
2013-07-21 12:31:00,78.1,76.0,30.05,NW,309,1.0,2.0,93,0.06,,,0.06,weatherlink.com 1.10,2013-07-21 16:31:00,
2013-07-21 12:46:00,77.0,76.0,30.04,NNW,340,0.0,1.0,97,0.08,,,0.08,weatherlink.com 1.10,2013-07-21 16:46:00,
2013-07-21 13:01:00,78.0,77.0,30.04,SSE,164,2.0,3.0,96,0.09,,,0.09,weatherlink.com 1.10,2013-07-21 17:01:00,
2013-07-21 13:16:00,77.6,77.0,30.03,NW,317,1.0,3.0,97,0.09,,,0.09,weatherlink.com 1.10,2013-07-21 17:16:00,
2013-07-21 13:31:00,78.1,77.0,30.03,SSW,199,1.0,2.0,95,0.02,,,0.09,weatherlink.com 1.10,2013-07-21 17:31:00,
2013-07-21 13:46:00,77.8,77.0,30.02,NE,48,0.0,2.0,96,0.01,,,0.09,weatherlink.com 1.10,2013-07-21 17:46:00,
2013-07-21 14:01:00,78.9,77.0,30.02,ENE,57,2.0,4.0,95,0.00,,,0.09,weatherlink.com 1.10,2013-07-21 18:01:00,
2013-07-21 14:16:00,78.2,76.0,30.01,ESE,120,2.0,3.0,94,0.00,,,0.09,weatherlink.com 1.10,2013-07-21 18:16:00,
2013-07-21 14:31:00,78.4,77.0,30.00,SE,129,3.0,3.0,94,0.00,,,0.09,weatherlink.com 1.10,2013-07-21 18:31:00,
2013-07-21 14:46:00,78.9,77.0,29.99,ENE,61,0.0,3.0,92,0.00,,,0.09,weatherlink.com 1.10,2013-07-21 18:46:00,
2013-07-21 15:01:00,79.3,77.0,29.99,NE,37,1.0,4.0,91,0.00,,,0.09,weatherlink.com 1.10,2013-07-21 19:01:00,
2013-07-21 15:16:00,79.6,77.0,29.99,SSE,164,0.0,3.0,90,0.00,,,0.09,weatherlink.com 1.10,2013-07-21 19:16:00,
2013-07-21 15:31:00,80.5,77.0,29.99,ESE,102,0.0,3.0,88,0.00,,,0.09,weatherlink.com 1.10,2013-07-21 19:31:00,
2013-07-21 15:46:00,81.4,77.0,29.98,NE,52,0.0,2.0,85,0.00,,,0.09,weatherlink.com 1.10,2013-07-21 19:46:00,
2013-07-21 16:01:00,82.1,77.0,29.98,East,96,1.0,2.0,83,0.00,,,0.09,weatherlink.com 1.10,2013-07-21 20:01:00,
2013-07-21 16:16:00,82.7,77.0,29.98,NE,46,3.0,3.0,82,0.00,,,0.09,weatherlink.com 1.10,2013-07-21 20:16:00,
2013-07-21 16:31:00,82.5,77.0,29.97,ESE,107,1.0,2.0,83,0.00,,,0.09,weatherlink.com 1.10,2013-07-21 20:31:00,
2013-07-21 16:46:00,83.6,78.0,29.97,SE,130,0.0,3.0,82,0.00,,,0.09,weatherlink.com 1.10,2013-07-21 20:46:00,
2013-07-21 17:01:00,83.6,77.0,29.97,NE,44,1.0,2.0,79,0.00,,,0.09,weatherlink.com 1.10,2013-07-21 21:01:00,
2013-07-21 17:16:00,83.3,77.0,29.97,SSW,207,1.0,3.0,82,0.00,,,0.09,weatherlink.com 1.10,2013-07-21 21:16:00,
2013-07-21 17:31:00,83.4,77.0,29.96,SSW,211,0.0,2.0,81,0.00,,,0.09,weatherlink.com 1.10,2013-07-21 21:31:00,
2013-07-21 17:46:00,83.0,77.0,29.96,ENE,76,1.0,2.0,83,0.00,,,0.09,weatherlink.com 1.10,2013-07-21 21:46:00,
2013-07-21 18:02:00,83.5,77.0,29.95,West,271,0.0,2.0,81,0.00,,,0.09,weatherlink.com 1.10,2013-07-21 22:02:00,
2013-07-21 18:17:00,82.0,77.0,29.96,ENE,67,1.0,2.0,84,0.00,,,0.09,weatherlink.com 1.10,2013-07-21 22:17:00,
2013-07-21 18:32:00,80.7,76.0,29.96,SW,222,0.0,3.0,85,0.00,,,0.09,weatherlink.com 1.10,2013-07-21 22:32:00,
2013-07-21 18:47:00,79.6,75.0,29.97,NNW,348,0.0,2.0,86,0.00,,,0.09,weatherlink.com 1.10,2013-07-21 22:47:00,
2013-07-21 19:02:00,78.7,75.0,29.98,North,5,0.0,1.0,88,0.00,,,0.09,weatherlink.com 1.10,2013-07-21 23:02:00,
2013-07-21 19:17:00,78.4,74.0,29.99,East,87,0.0,3.0,86,0.00,,,0.09,weatherlink.com 1.10,2013-07-21 23:17:00,
2013-07-21 19:32:00,77.7,74.0,29.99,WNW,299,1.0,3.0,88,0.00,,,0.09,weatherlink.com 1.10,2013-07-21 23:32:00,
2013-07-21 19:47:00,76.1,74.0,29.99,WNW,300,0.0,1.0,92,0.01,,,0.10,weatherlink.com 1.10,2013-07-21 23:47:00,
2013-07-21 20:02:00,74.6,73.0,29.99,WNW,300,0.0,1.0,94,0.01,,,0.10,weatherlink.com 1.10,2013-07-22 00:02:00,
2013-07-21 20:17:00,74.2,73.0,30.00,WNW,300,0.0,0.0,96,0.01,,,0.10,weatherlink.com 1.10,2013-07-22 00:17:00,
2013-07-21 20:32:00,74.3,73.0,30.00,WNW,300,0.0,1.0,97,0.03,,,0.12,weatherlink.com 1.10,2013-07-22 00:32:00,
2013-07-21 20:47:00,74.2,74.0,30.00,WNW,300,0.0,0.0,98,0.06,,,0.16,weatherlink.com 1.10,2013-07-22 00:47:00,
2013-07-21 21:02:00,74.0,73.0,30.00,WNW,300,0.0,0.0,98,0.09,,,0.19,weatherlink.com 1.10,2013-07-22 01:02:00,
2013-07-21 21:17:00,74.0,73.0,30.00,WNW,300,0.0,0.0,98,0.11,,,0.21,weatherlink.com 1.10,2013-07-22 01:17:00,
2013-07-21 21:32:00,73.9,74.0,30.00,WNW,300,0.0,0.0,99,0.10,,,0.22,weatherlink.com 1.10,2013-07-22 01:32:00,
2013-07-21 21:47:00,73.9,74.0,30.00,WNW,300,0.0,0.0,99,0.06,,,0.22,weatherlink.com 1.10,2013-07-22 01:47:00,
2013-07-21 22:02:00,74.0,74.0,30.00,WNW,300,0.0,0.0,99,0.03,,,0.22,weatherlink.com 1.10,2013-07-22 02:02:00,
2013-07-21 22:17:00,74.0,74.0,30.00,WNW,300,0.0,1.0,99,0.01,,,0.22,weatherlink.com 1.10,2013-07-22 02:17:00,
2013-07-21 22:32:00,74.0,74.0,30.01,WNW,300,0.0,0.0,99,0.00,,,0.22,weatherlink.com 1.10,2013-07-22 02:32:00,
2013-07-21 22:47:00,74.2,74.0,30.02,WNW,300,0.0,0.0,99,0.00,,,0.22,weatherlink.com 1.10,2013-07-22 02:47:00,
2013-07-21 23:02:00,74.2,74.0,30.02,WNW,300,0.0,0.0,99,0.00,,,0.22,weatherlink.com 1.10,2013-07-22 03:02:00,
2013-07-21 23:17:00,74.4,74.0,30.02,WNW,300,0.0,0.0,99,0.00,,,0.22,weatherlink.com 1.10,2013-07-22 03:17:00,
2013-07-21 23:32:00,74.5,74.0,30.02,WNW,300,0.0,0.0,99,0.00,,,0.22,weatherlink.com 1.10,2013-07-22 03:32:00,
2013-07-21 23:47:00,74.6,74.0,30.03,WNW,300,0.0,0.0,99,0.00,,,0.22,weatherlink.com 1.10,2013-07-22 03:47:00,